[[{"header":{"parameterUnit":"m.s-1","parameterCategory":1,"la1":30.2991,"la2":30.254,"lo1":-89.0895,"lo2":-89.0444,"dy":0.0017,"dx":0.0017,"nx":28,"ny":28,"refTime":"2026-01-01T09:00:00:Z","depth":0,"parameterNumber":2,"parameterNumberName":"U-component_of_WINDS"},"data":[0,0,0,0,0,0,0,0,0,0,0,0,0,0,0,0,0,0,0,0,0,0,0,0,0,0,0,0,0,0,0,0,0,0,0,0,0,0,0,0,0,0,0,0,0,0,0,0,0,0,0,0,0,0,0,0,0,0,3.3126,3.3128,0,3.3328,3.3331,3.3333,3.3346,3.3344,3.3341,3.3339,3.355,3.3557,3.3565,0,0,0,0,0,0,0,0,0,0,0,0,0,3.2753,3.2759,3.3125,3.3128,3.313,3.3328,3.3331,3.3333,3.3346,3.3344,3.3341,3.3338,3.3547,3.3556,3.3566,0,0,0,0,0,0,0,0,0,0,0,0,0,3.2931,3.2762,3.3125,3.3161,3.3166,3.3327,3.3331,3.3334,3.3347,3.3343,3.334,3.3337,3.3544,3.3556,3.3567,3.3708,0,0,3.3603,3.3608,0,0,0,0,0,0,0,0,3.2921,3.2945,3.3153,3.3158,3.3165,3.3308,3.3277,3.346,3.3348,3.3278,3.3339,3.3335,3.3472,3.349,3.3535,3.3718,3.3727,3.3604,3.3611,3.3616,3.3619,0,0,0,0,0,0,0,3.2908,3.2936,3.3206,3.3156,3.3163,3.3168,3.3189,3.3311,3.3392,3.3284,3.3285,3.3309,3.3475,3.3524,3.3541,3.373,3.3603,3.3614,3.3621,3.3625,3.4038,3.4041,0,0,0,0,0,0,3.2889,3.2926,3.3199,3.3212,3.3032,3.3177,3.3201,3.3266,3.3391,3.3407,3.3312,3.3309,3.3506,3.3527,3.3548,3.372,3.3616,3.3626,3.3633,3.4034,3.4038,3.4043,0,0,0,0,0,0,3.2881,3.2913,3.3191,3.3069,3.3105,3.3187,3.3259,3.3271,3.332,3.3412,3.3427,3.3347,3.3504,3.3532,3.3668,3.3727,3.3632,3.3642,3.4029,3.4035,3.4041,3.4065,0,0,0,0,0,0,3.287,3.291,3.2963,3.307,3.3111,3.3306,3.3263,3.3278,3.334,3.3338,3.3449,3.3464,3.3504,3.365,3.3679,3.3742,3.3651,3.4024,3.4032,3.4039,3.4059,3.4071,3.4081,0,0,0,0,0,3.2857,3.2963,3.2966,3.2999,3.318,3.331,3.3333,3.3376,3.3345,3.34,3.3459,3.346,3.3717,3.3664,3.3697,3.3764,3.402,3.4029,3.4038,3.4054,3.4069,3.4081,0,0,0,0,0,0,3.2862,3.2978,3.2982,3.3126,3.3208,3.3311,3.3381,3.339,3.3483,3.3477,3.3528,3.3553,3.3687,3.374,3.3679,3.3907,3.3865,3.3881,3.3866,3.3881,3.3892,3.3875,3.3661,0,0,0,0,0,3.2879,3.2974,3.3071,3.3189,3.323,3.3299,3.3357,3.3383,3.347,3.3505,3.3574,3.3659,3.3759,3.3823,3.392,3.4068,3.4092,3.4131,3.4142,3.415,3.4163,3.4244,3.4262,3.4072,3.4072,3.4072,0,0,3.2917,3.2992,3.3049,3.3192,3.3258,3.3356,3.3328,3.3432,3.3506,3.3521,3.3652,3.3707,3.3805,3.3947,3.4014,3.3996,3.4221,3.4162,3.4168,3.4176,3.4255,3.4273,3.4289,3.4078,3.4077,3.4076,0,0,3.3035,3.3102,3.3207,3.3274,3.3375,3.342,3.3445,3.3549,3.3584,3.3718,3.3731,3.382,3.3991,3.406,3.4118,3.4264,3.4269,3.4295,3.4351,3.443,3.4445,3.4459,3.4509,3.4527,3.4308,3.4308,3.4308,0,3.3069,3.3216,3.326,3.3365,3.3427,3.3445,3.3552,3.3616,3.3743,3.3786,3.3764,3.3979,3.4047,3.4205,3.4241,3.4288,3.4318,3.4281,3.444,3.4454,3.4467,3.4516,3.4535,3.431,3.431,3.4309,3.4309,0,3.3253,3.3355,3.3428,3.3549,3.362,3.3725,3.3786,3.3853,3.3873,3.3921,3.4057,3.414,3.4253,3.4293,3.4315,3.4455,3.4441,3.4429,3.4388,3.4486,3.4533,3.4552,3.4313,3.4312,3.4312,3.4311,0,0,3.3377,3.3522,3.3548,3.3603,3.3716,3.3796,3.3903,3.4013,3.4069,3.4158,3.4248,3.4393,3.4383,3.4448,3.4479,3.4548,3.4657,3.4528,3.4531,3.4547,3.4816,3.4822,3.4843,3.4662,3.4666,3.4669,3.4807,0,3.3506,3.3694,3.3738,3.39,3.3994,3.4014,3.4107,3.4187,3.4236,3.4324,3.4379,3.448,3.4459,3.4499,3.4569,3.4629,3.4711,3.462,3.4746,3.475,3.4718,3.4867,3.4874,3.5,3.4825,3.4829,3.4831,0,3.3681,3.3772,3.3943,3.4043,3.4085,3.4167,3.4272,3.4356,3.4448,3.4479,3.4552,3.4575,3.4688,3.4644,3.48,3.4737,3.4792,3.4829,3.4835,3.4847,3.4794,3.4881,3.5041,3.5059,3.486,3.4858,3.4856,0,3.3751,3.3917,3.4041,3.4088,3.4209,3.4266,3.432,3.4408,3.4472,3.4564,3.4606,3.4711,3.4768,3.4849,3.4901,3.4864,3.5052,3.5012,3.5081,3.5079,3.5117,3.5113,3.5286,3.5157,3.5156,3.5156,3.5156,0,3.3889,3.3993,3.4074,3.415,3.4267,3.4317,3.4432,3.4486,3.4564,3.4651,3.4677,3.4758,3.4822,3.4913,3.4955,3.5077,3.5103,3.5131,3.514,3.5127,3.5123,3.5162,3.5154,3.5161,3.516,3.5159,3.5158,0,3.3987,3.4045,3.4181,3.4285,3.4314,3.4395,3.4484,3.4559,3.4609,3.4719,3.4748,3.4827,3.4935,3.4995,3.5132,3.5159,3.5295,3.5302,3.5264,3.5267,3.5331,3.5323,3.5533,3.5562,3.5415,3.5416,3.5417,0,3.4069,3.4149,3.4261,3.4321,3.4375,3.4471,3.4536,3.459,3.4656,3.4768,3.4829,3.4939,3.5029,3.5201,3.5271,3.5376,3.5383,3.545,3.5399,3.5383,3.5382,3.5375,3.5383,3.5457,3.5459,3.546,3.5461,0,3.4208,3.4234,3.4326,3.4428,3.4505,3.4589,3.4672,3.472,3.4787,3.4861,3.4971,3.5041,3.5181,3.5289,3.5399,3.5456,3.547,3.5477,3.5497,3.5483,3.5457,3.547,3.5285,3.5471,3.547,3.5469,3.5468,3.5468,3.43,3.4371,3.4461,3.4563,3.4631,3.4708,3.4783,3.4843,3.4935,3.5052,3.5079,3.5195,3.5286,3.5436,3.5495,3.5588,3.5575,3.5606,3.5613,3.562,3.5621,3.5445,3.5609,3.5608,3.5608,3.5608,3.5608,0,3.4438,3.4498,3.4591,3.4706,3.4786,3.4792,3.4885,3.4952,3.5053,3.5137,3.5225,3.5352,3.5458,3.5537,3.5645,3.5704,3.5713,3.573,3.5725,3.5738,3.5627,3.5597,3.5721,3.5721,3.5721,3.5721,3.5721,3.5721,3.452,3.4641,3.4677,3.4833,3.4892,3.5005,3.5057,3.5129,3.5196,3.5336,3.5423,3.5474,3.5556,3.5671,3.5768,3.5789,3.5827,3.5843,3.5864,3.5758,3.5746,3.5734,3.5706,3.5851,3.5852,3.5967,3.5968,3.5969]},{"header":{"parameterUnit":"m.s-1","parameterCategory":1,"la1":30.2991,"la2":30.254,"lo1":-89.0895,"lo2":-89.0444,"dy":0.0017,"dx":0.0017,"nx":28,"ny":28,"refTime":"2026-01-01T09:00:00:Z","depth":0,"parameterNumber":3,"parameterNumberName":"V-component_of_WINDS"},"data":[0,0,0,0,0,0,0,0,0,0,0,0,0,0,0,0,0,0,0,0,0,0,0,0,0,0,0,0,0,0,0,0,0,0,0,0,0,0,0,0,0,0,0,0,0,0,0,0,0,0,0,0,0,0,0,0,0,0,2.3387,2.3388,0,2.3442,2.3442,2.3443,2.3422,2.3421,2.3419,2.3418,2.3472,2.3475,2.3477,0,0,0,0,0,0,0,0,0,0,0,0,0,2.3262,2.3265,2.3387,2.3388,2.3388,2.3442,2.3442,2.3443,2.3422,2.3421,2.3419,2.3418,2.3471,2.3475,2.3478,0,0,0,0,0,0,0,0,0,0,0,0,0,2.3317,2.3265,2.3387,2.3384,2.3385,2.3442,2.3442,2.3443,2.3422,2.3421,2.3419,2.3417,2.347,2.3474,2.3478,2.354,0,0,2.349,2.3492,0,0,0,0,0,0,0,0,2.3313,2.3321,2.3384,2.3385,2.3385,2.3423,2.3418,2.3476,2.3423,2.3408,2.3418,2.3416,2.3457,2.3462,2.3477,2.3543,2.3545,2.349,2.3493,2.3494,2.3496,0,0,0,0,0,0,0,2.331,2.3319,2.3409,2.3385,2.3386,2.338,2.3385,2.3429,2.3443,2.3409,2.3408,2.3415,2.3457,2.3473,2.3478,2.3546,2.349,2.3494,2.3496,2.3498,2.3664,2.3666,0,0,0,0,0,0,2.3306,2.3316,2.3407,2.341,2.3344,2.3384,2.339,2.3413,2.3442,2.3445,2.3416,2.3414,2.3467,2.3473,2.3479,2.3553,2.3494,2.3498,2.35,2.3662,2.3665,2.3667,0,0,0,0,0,0,2.3303,2.3314,2.3405,2.3363,2.3374,2.3388,2.3414,2.3415,2.343,2.3447,2.3449,2.343,2.3466,2.3474,2.3525,2.3555,2.35,2.3503,2.366,2.3663,2.3666,2.3702,0,0,0,0,0,0,2.33,2.3314,2.3338,2.3363,2.3376,2.345,2.3416,2.3417,2.3438,2.3434,2.3461,2.3463,2.3465,2.3519,2.3529,2.3559,2.3506,2.3657,2.3661,2.3665,2.3698,2.3706,2.3713,0,0,0,0,0,2.3296,2.3346,2.3339,2.335,2.3407,2.3452,2.3459,2.3461,2.344,2.3464,2.3475,2.3462,2.355,2.3525,2.3535,2.3567,2.3655,2.366,2.3665,2.3695,2.3705,2.3713,0,0,0,0,0,0,2.3323,2.3349,2.3342,2.3402,2.3425,2.3448,2.3479,2.3471,2.35,2.3495,2.3496,2.3502,2.3554,2.3566,2.3537,2.3629,2.36,2.3607,2.3619,2.3628,2.3635,2.3631,2.351,0,0,0,0,0,2.3336,2.3371,2.3392,2.3442,2.3454,2.3465,2.3484,2.3484,2.3507,2.3517,2.3531,2.3554,2.3586,2.3608,2.3639,2.37,2.3705,2.3727,2.3734,2.374,2.3746,2.3779,2.3789,2.3682,2.3682,2.3682,0,0,2.3363,2.3381,2.3403,2.3448,2.3466,2.3502,2.3473,2.3512,2.3538,2.3522,2.3572,2.3583,2.3608,2.3665,2.369,2.3676,2.3777,2.3746,2.3751,2.3754,2.3784,2.3795,2.3803,2.3686,2.3685,2.3685,0,0,2.343,2.3448,2.3492,2.3511,2.3538,2.3544,2.3555,2.358,2.3587,2.3637,2.3625,2.3656,2.3713,2.3731,2.3748,2.3822,2.3811,2.3832,2.3869,2.3901,2.3909,2.3917,2.3943,2.3952,2.3838,2.3838,2.3838,0,2.346,2.3514,2.3515,2.3556,2.3575,2.3563,2.3607,2.3625,2.3661,2.3674,2.3658,2.3729,2.3745,2.3805,2.3823,2.3837,2.3849,2.3829,2.3908,2.3916,2.3923,2.3947,2.3957,2.384,2.384,2.384,2.384,0,2.3549,2.3587,2.3619,2.3654,2.3678,2.372,2.3727,2.375,2.3747,2.3755,2.3806,2.3825,2.3859,2.3873,2.3871,2.3933,2.3923,2.3908,2.3879,2.3935,2.3958,2.3968,2.3844,2.3843,2.3842,2.3841,0,0,2.3635,2.3671,2.3682,2.3698,2.3728,2.3756,2.3797,2.3832,2.3852,2.3877,2.3911,2.3959,2.3944,2.3963,2.3963,2.3991,2.4048,2.3972,2.3972,2.3985,2.4117,2.4128,2.4139,2.4041,2.4043,2.4044,2.4114,0,2.3704,2.3777,2.3779,2.3845,2.388,2.3869,2.3904,2.3926,2.3934,2.3964,2.3973,2.4007,2.3986,2.3997,2.4025,2.4035,2.4074,2.403,2.4072,2.4073,2.4065,2.4151,2.4163,2.4229,2.4123,2.4125,2.4126,0,2.3794,2.3823,2.3893,2.3917,2.3932,2.3964,2.3995,2.4024,2.4048,2.4052,2.4073,2.4069,2.411,2.408,2.4136,2.4106,2.4123,2.4131,2.4133,2.4137,2.4103,2.4157,2.4249,2.4259,2.4141,2.4139,2.4138,0,2.3849,2.3905,2.3954,2.3968,2.3998,2.402,2.4034,2.4056,2.4076,2.4103,2.4116,2.4148,2.4165,2.4189,2.4193,2.4171,2.4249,2.4219,2.4253,2.4253,2.427,2.4269,2.4366,2.4282,2.4282,2.4281,2.4281,0,2.3926,2.3969,2.3979,2.4009,2.4057,2.4059,2.4106,2.4117,2.4137,2.4168,2.416,2.419,2.4193,2.4223,2.4226,2.4272,2.428,2.4284,2.4284,2.4285,2.4284,2.4296,2.4291,2.4284,2.4283,2.4283,2.4283,0,2.3995,2.4004,2.4056,2.408,2.4087,2.4121,2.4141,2.4169,2.4177,2.4217,2.4226,2.4238,2.4274,2.428,2.4321,2.4323,2.4378,2.4374,2.437,2.4369,2.4403,2.4399,2.4511,2.4525,2.4432,2.4432,2.4433,0,2.4043,2.4076,2.4104,2.4125,2.4139,2.4173,2.4194,2.4197,2.4219,2.4249,2.4273,2.4308,2.4336,2.4392,2.4404,2.4436,2.4432,2.4469,2.4436,2.4435,2.4432,2.443,2.4433,2.4475,2.4476,2.4476,2.4477,0,2.4128,2.413,2.4161,2.4194,2.4219,2.4245,2.4269,2.4286,2.4292,2.4317,2.4354,2.4375,2.4418,2.4452,2.4483,2.4496,2.4487,2.4487,2.4497,2.4497,2.4494,2.4496,2.4386,2.4485,2.4484,2.4483,2.4483,2.4483,2.4188,2.4216,2.424,2.4275,2.4293,2.4316,2.4344,2.4355,2.4386,2.4421,2.4421,2.446,2.4483,2.4524,2.4539,2.457,2.4558,2.4571,2.4575,2.4578,2.4581,2.4489,2.4575,2.4575,2.4575,2.4575,2.4575,0,2.4271,2.4286,2.4318,2.4352,2.4379,2.437,2.4396,2.4419,2.4454,2.4476,2.4504,2.4545,2.4578,2.4593,2.4625,2.4647,2.4644,2.4655,2.4654,2.4657,2.459,2.4579,2.4657,2.4657,2.4657,2.4657,2.4657,2.4657,2.4318,2.4366,2.4371,2.4428,2.4442,2.4481,2.4497,2.4518,2.4535,2.4582,2.461,2.462,2.4639,2.4672,2.4702,2.4705,2.4717,2.4731,2.4732,2.467,2.4661,2.4653,2.4642,2.4733,2.4733,2.4796,2.4797,2.4797]}]]